Weather in Sarashi

Russia / Perm Krai     56°46′37″N   55°45′12″E
temp.,
°C
wind,
m/s
gust,
m/s
humid.,
%
clouds,
%
prec.,
mm/h
press.,
hPa
HPBL,
m
4 march, thu
thu423:00−4wnw489799 0.9 998391
02:00−7nw4995100 0.5 998360
05:00−11w4996100 0.8 999213
08:00−12wsw4897100 0.1 999174
11:00−9sw5896100 0.2 999302
14:00−5sw61092100 0.1 997552
17:00−5ssw71092100 0.3 996589
20:00−5s81495100 1.1 993783
5 march, fri
fri523:00−5ssw91793100 2.4 989774
02:00−5sw7159188 0.9 987726
05:00−6wsw9178993 1.3 991688
08:00−9wsw61492100 0.1 994640
11:00−9w61192100 0.2 997562
14:00−7w6990100 0.1 1000655
17:00−7wnw5888100 0.1 1002689
20:00−13wnw458966 0.0 100574
6 march, sat
sat623:00−15w349433 0.0 100750
02:00−16wsw35960 0.0 100872
05:00−14sw489646 0.1 1009239
08:00−14sw4796100 0.3 1009184
11:00−11w5991100 0.4 1010641
14:00−10w5884100 0.1 1011786
17:00−10wnw3584100 0.1 1011721
20:00−17nw2296100 0.0 101120
7 march, sun
sun723:00−20wnw1110091 0.0 101220
02:00−21nw1110087 0.0 101120
05:00−22nw0110088 0.1 101120
08:00−23wnw1110083 0.0 101120
11:00−17wnw239281 0.0 1011248
14:00−13wnw348399 0.0 1010659
17:00−13wsw3484100 0.1 1010720
20:00−17ssw3598100 0.1 1011130
8 march, mon
mon823:00−22s3410077 0.1 101151
02:00−21sse4710079 0.0 1009136
05:00−18sse6119690 0.1 1007322
08:00−17sse61395100 0.3 1003446
11:00−13sse71393100 0.9 1001576
14:00−8s81392100 0.8 1000803
17:00−6wsw6107893 1.1 10011168
20:00−10ssw5138793 0.0 1003329